Flora, IL

12:43 AM CDT on May 30, 2017 (GMT -0500)
Flora Municipal

Weather History for KFOA - December, 2012

Change the Weather History Date:

Sunday, December 30, 2012

  Actual Average (KSLO) Record (KSLO)
Temperature  
Mean Temperature 16 °F -  
Max Temperature 29 °F 38 °F 67 °F (1965)
Min Temperature 3 °F 23 °F -8 °F (1983)
Degree Days  
Heating Degree Days 49    
Moisture  
Dew Point 15 °F    
Average Humidity 86    
Maximum Humidity 96    
Minimum Humidity 71    
Precipitation  
Precipitation 0.00 in - - ()
Sea Level Pressure  
Sea Level Pressure 30.39 in    
Wind  
Wind Speed 5 mph (South)    
Max Wind Speed 12 mph    
Max Gust Speed -    
Visibility 6 miles    
Events Fog    
Averages and records for this station are not official NWS values.
T = Trace of Precipitation, MM = Missing Value Source: NWS Daily Summary

Daily Weather History Graph

Daily Weather History Graph

Search for Another Location

Airport or City:

Trip Planner

Search our weather history database for the weather conditions in past years. The results will help you decide how hot, cold, wet, or windy it might be!

Date:

Astronomy

Dec. 30, 2012 Rise Set
Actual Time 7:11 AM CST 4:41 PM CST
Civil Twilight 6:41 AM CST 5:11 PM CST
Nautical Twilight 6:08 AM CST 5:44 PM CST
Astronomical Twilight 5:36 AM CST 6:17 PM CST
Moon 7:11 PM CST 8:21 AM CST
Length of Visible Light 10h 29m
Length of Day
9h 30m
Waning Gibbous, 95% of the Moon is Illuminated
Dec 30
Waning Gibbous
Jan 4
Last Quarter
Jan 11
New
Jan 18
First Quarter
Jan 26
Full

Hourly Weather History & Observations

Time (CST) Temp. Windchill Dew Point Humidity Pressure Visibility Wind Dir Wind Speed Gust Speed Precip Events Conditions
12:15 AM 11.1 °F 4.9 °F 10.2 °F 96% 30.34 in 4.0 mi West 3.5 mph - N/A   Clear
12:35 AM 12.7 °F 6.7 °F 11.7 °F 95% 30.35 in 5.0 mi WSW 3.5 mph - N/A   Clear
12:55 AM 8.1 °F - 5.7 °F 90% 30.35 in 2.5 mi Calm Calm - N/A   Clear
1:15 AM 8.2 °F - 6.1 °F 91% 30.35 in 0.8 mi Calm Calm - N/A   Mist
1:35 AM 5.2 °F - 2.7 °F 89% 30.36 in 0.2 mi Calm Calm - N/A Fog Light Freezing Fog
1:55 AM 4.1 °F -5.1 °F 1.4 °F 89% 30.37 in 0.2 mi SSW 4.6 mph - N/A Fog Light Freezing Fog
2:15 AM 6.4 °F -3.9 °F 4.5 °F 92% 30.38 in 0.2 mi SSW 5.8 mph - N/A Fog Light Freezing Fog
2:35 AM 7.5 °F -2.6 °F 5.4 °F 91% 30.40 in 1.2 mi SW 5.8 mph - N/A   Mostly Cloudy
2:55 AM 7.5 °F 0.8 °F 5.4 °F 91% 30.40 in 1.5 mi SW 3.5 mph - N/A   Mist
3:15 AM 5.5 °F -1.5 °F 2.8 °F 89% 30.40 in 1.0 mi SSW 3.5 mph - N/A   Mostly Cloudy
3:35 AM 5.4 °F -1.7 °F 2.8 °F 89% 30.40 in 0.5 mi SSW 3.5 mph - N/A Fog Light Freezing Fog
3:55 AM 5.9 °F -3.0 °F 3.7 °F 91% 30.40 in 0.8 mi SW 4.6 mph - N/A   Mostly Cloudy
4:15 AM 4.5 °F -6.3 °F 2.1 °F 90% 30.41 in 2.5 mi SW 5.8 mph - N/A   Clear
4:35 AM 5.9 °F -1.1 °F 3.7 °F 91% 30.40 in 2.0 mi SSW 3.5 mph - N/A   Clear
4:55 AM 4.8 °F - 2.1 °F 89% 30.40 in 1.2 mi Calm Calm - N/A   Mist
5:36 AM 3.2 °F -4.2 °F 1.4 °F 92% 30.41 in 0.5 mi SSW 3.5 mph - N/A Fog Light Freezing Fog
5:56 AM 3.2 °F - 1.4 °F 92% 30.42 in 2.0 mi Calm Calm - N/A   Clear
6:15 AM 3.2 °F -4.2 °F -0.4 °F 85% 30.43 in 2.0 mi SSW 3.5 mph - N/A   Clear
6:36 AM 3.2 °F -4.2 °F 1.4 °F 92% 30.44 in 2.5 mi SSW 3.5 mph - N/A   Clear
6:56 AM 3.2 °F - 1.4 °F 92% 30.43 in 2.0 mi Calm Calm - N/A   Clear
7:16 AM 6.8 °F - 3.2 °F 85% 30.44 in 1.0 mi Calm Calm - N/A   Mist
7:34 AM 6.8 °F - 3.2 °F 85% 30.43 in 1.2 mi Calm Calm - N/A   Mist
7:35 AM 5.9 °F - 3.6 °F 90% 30.43 in 1.2 mi Calm Calm - N/A   Mist
7:55 AM 6.8 °F -0.1 °F 4.1 °F 89% 30.43 in 2.5 mi SSE 3.5 mph - N/A   Clear
8:15 AM 7.2 °F 0.3 °F 4.5 °F 89% 30.43 in 3.0 mi SSE 3.5 mph - N/A   Clear
8:35 AM 9.3 °F 2.8 °F 6.8 °F 89% 30.44 in 4.0 mi South 3.5 mph - N/A   Clear
8:55 AM 10.0 °F 3.6 °F 7.5 °F 90% 30.46 in 5.0 mi South 3.5 mph - N/A   Clear
9:15 AM 15.1 °F 6.4 °F 13.5 °F 93% 30.47 in 5.0 mi South 5.8 mph - N/A   Clear
9:35 AM 17.6 °F 7.3 °F 16.2 °F 94% 30.47 in 5.0 mi South 8.1 mph - N/A   Clear
9:55 AM 19.8 °F 10.8 °F 18.7 °F 96% 30.47 in 5.0 mi South 6.9 mph - N/A   Clear
10:15 AM 21.6 °F 11.3 °F 20.7 °F 96% 30.47 in 7.0 mi South 9.2 mph - N/A   Clear
10:35 AM 22.3 °F 12.2 °F 21.2 °F 96% 30.47 in 7.0 mi South 9.2 mph - N/A   Clear
10:55 AM 24.4 °F 14.9 °F 20.3 °F 84% 30.47 in 10.0 mi South 9.2 mph - N/A   Clear
11:35 AM 27.5 °F 18.6 °F 19.9 °F 73% 30.44 in 10.0 mi South 9.2 mph - N/A   Clear
11:55 AM 27.9 °F 17.8 °F 20.1 °F 73% 30.42 in 10.0 mi SSW 11.5 mph - N/A   Clear
12:15 PM 28.4 °F 20.4 °F 20.3 °F 72% 30.41 in 10.0 mi South 8.1 mph - N/A   Clear
12:35 PM 28.8 °F 20.9 °F 20.5 °F 71% 30.40 in 10.0 mi South 8.1 mph - N/A   Clear
12:55 PM 28.6 °F 21.5 °F 20.8 °F 73% 30.39 in 10.0 mi SSE 6.9 mph - N/A   Clear
1:15 PM 27.9 °F 19.8 °F 20.8 °F 75% 30.40 in 10.0 mi South 8.1 mph - N/A   Clear
1:35 PM 28.2 °F 20.2 °F 21.0 °F 74% 30.40 in 10.0 mi South 8.1 mph - N/A   Clear
1:55 PM 28.8 °F 20.9 °F 21.2 °F 73% 30.39 in 10.0 mi South 8.1 mph - N/A   Clear
2:15 PM 29.3 °F 19.6 °F 21.2 °F 72% 30.40 in 10.0 mi South 11.5 mph - N/A   Clear
2:35 PM 29.7 °F 20.7 °F 21.6 °F 72% 30.39 in 10.0 mi South 10.4 mph - N/A   Clear
2:55 PM 29.5 °F 21.1 °F 21.9 °F 73% 30.38 in 10.0 mi South 9.2 mph - N/A   Clear
3:15 PM 28.6 °F 19.3 °F 21.7 °F 76% 30.38 in 10.0 mi South 10.4 mph - N/A   Clear
3:35 PM 27.9 °F 19.8 °F 21.2 °F 76% 30.38 in 10.0 mi South 8.1 mph - N/A   Clear
3:55 PM 27.3 °F 19.1 °F 21.2 °F 78% 30.39 in 10.0 mi South 8.1 mph - N/A   Clear
4:15 PM 25.7 °F 18.0 °F 20.7 °F 81% 30.39 in 10.0 mi South 6.9 mph - N/A   Clear
4:35 PM 24.4 °F 15.6 °F 20.3 °F 84% 30.38 in 10.0 mi SSE 8.1 mph - N/A   Clear
4:55 PM 26.1 °F 17.6 °F 21.2 °F 82% 30.38 in 10.0 mi South 8.1 mph - N/A   Clear
5:15 PM 26.2 °F 17.8 °F 21.6 °F 82% 30.37 in 10.0 mi South 8.1 mph - N/A   Clear
5:35 PM 26.1 °F 16.8 °F 21.6 °F 83% 30.36 in 10.0 mi SSE 9.2 mph - N/A   Clear
5:55 PM 26.6 °F 18.2 °F 22.1 °F 83% 30.37 in 10.0 mi South 8.1 mph - N/A   Clear
6:15 PM 26.1 °F 17.6 °F 21.7 °F 84% 30.36 in 10.0 mi South 8.1 mph - N/A   Clear
6:35 PM 26.4 °F 17.3 °F 22.1 °F 84% 30.37 in 10.0 mi South 9.2 mph - N/A   Clear
6:55 PM 25.3 °F 16.0 °F 21.4 °F 85% 30.37 in 10.0 mi South 9.2 mph - N/A   Clear
7:15 PM 24.8 °F 16.1 °F 21.6 °F 87% 30.36 in 10.0 mi South 8.1 mph - N/A   Clear
7:35 PM 24.6 °F 15.8 °F 21.4 °F 87% 30.36 in 10.0 mi South 8.1 mph - N/A   Clear
7:55 PM 24.8 °F 15.3 °F 21.9 °F 89% 30.35 in 7.0 mi South 9.2 mph - N/A   Clear
8:15 PM 26.1 °F 16.8 °F 23.0 °F 88% 30.34 in 7.0 mi South 9.2 mph - N/A   Clear
8:35 PM 25.3 °F 16.7 °F 22.5 °F 89% 30.34 in 7.0 mi South 8.1 mph - N/A   Clear
8:55 PM 24.8 °F 15.3 °F 22.3 °F 90% 30.33 in 7.0 mi South 9.2 mph - N/A   Clear
9:15 PM 26.4 °F 17.3 °F 23.5 °F 89% 30.32 in 7.0 mi South 9.2 mph - N/A   Clear
9:35 PM 26.6 °F 18.2 °F 23.7 °F 89% 30.32 in 7.0 mi South 8.1 mph - N/A   Clear
9:55 PM 25.5 °F 16.9 °F 22.8 °F 89% 30.32 in 7.0 mi South 8.1 mph - N/A   Clear
10:15 PM 24.8 °F 16.9 °F 22.6 °F 91% 30.31 in 7.0 mi South 6.9 mph - N/A   Clear
10:35 PM 25.5 °F 16.9 °F 23.0 °F 90% 30.29 in 7.0 mi South 8.1 mph - N/A   Clear
10:55 PM 24.6 °F 14.4 °F 22.5 °F 91% 30.29 in 7.0 mi South 10.4 mph - N/A   Clear
11:15 PM 25.5 °F 15.5 °F 23.2 °F 91% 30.29 in 7.0 mi South 10.4 mph - N/A   Clear
11:35 PM 25.9 °F 16.0 °F 23.5 °F 91% 30.29 in 7.0 mi South 10.4 mph - N/A   Clear
11:55 PM 26.6 °F 17.5 °F 23.7 °F 89% 30.27 in 7.0 mi South 9.2 mph - N/A   Clear